Muscle Shoals, AL

11:19 AM CDT on March 25, 2017 (GMT -0500)
Northwest Alabama Regional

Weather History for KMSL - April, 2014

Change the Weather History Date:

Saturday, April 26, 2014

  Actual Average Record
Temperature  
Mean Temperature 65 °F 64 °F  
Max Temperature 85 °F 76 °F 95 °F (1925)
Min Temperature 45 °F 53 °F 30 °F (1919)
Degree Days  
Heating Degree Days 0 3  
Month to date heating degree days 134 150  
Since 1 July heating degree days 3348 3063  
Cooling Degree Days 0 2  
Month to date cooling degree days 31 40  
Year to date cooling degree days 31 53  
Growing Degree Days 14 (Base 50)    
Moisture  
Dew Point 47 °F    
Average Humidity 59    
Maximum Humidity 93    
Minimum Humidity 25    
Precipitation  
Precipitation 0.00 in 0.15 in 2.28 in (1920)
Month to date precipitation 3.50 3.77  
Year to date precipitation 11.81 17.80  
Snow  
Snow 0.00 in - - ()
Month to date snowfall 0.0  
Since 1 July snowfall 1.4  
Snow Depth 0.00 in    
Sea Level Pressure  
Sea Level Pressure 29.98 in    
Wind  
Wind Speed 3 mph (SE)    
Max Wind Speed 10 mph    
Max Gust Speed 15 mph    
Visibility 4 miles    
Events Fog    
T = Trace of Precipitation, MM = Missing Value Source: NWS Daily Summary

Daily Weather History Graph

Daily Weather History Graph

Search for Another Location

Airport or City:

Trip Planner

Search our weather history database for the weather conditions in past years. The results will help you decide how hot, cold, wet, or windy it might be!

Date:

Astronomy

Apr. 26, 2014 Rise Set
Actual Time 6:05 AM CDT 7:31 PM CDT
Civil Twilight 5:38 AM CDT 7:58 PM CDT
Nautical Twilight 5:07 AM CDT 8:30 PM CDT
Astronomical Twilight 4:33 AM CDT 9:03 PM CDT
Moon 4:22 AM CDT (4/26) 5:05 PM CDT (4/26)
Length of Visible Light 14h 19m
Length of Day
13h 26m
Waning Crescent, 8% of the Moon is Illuminated
Apr 26
Waning Crescent
Apr 29
New
May 6
First Quarter
May 14
Full
May 21
Last Quarter

Hourly Weather History & Observations

Time (CDT) Temp. Dew Point Humidity Pressure Visibility Wind Dir Wind Speed Gust Speed Precip Events Conditions
12:53 AM 52.0 °F 48.0 °F 86% 29.97 in 9.0 mi Calm Calm - N/A   Clear
1:53 AM 51.1 °F 46.9 °F 86% 29.97 in 8.0 mi Calm Calm - N/A   Clear
2:31 AM 48.2 °F 44.6 °F 87% 29.96 in 1.5 mi Calm Calm - N/A   Clear
2:41 AM 50.0 °F 46.4 °F 87% 29.97 in 4.0 mi Calm Calm - N/A   Clear
2:53 AM 50.0 °F 46.0 °F 86% 29.96 in 3.0 mi Calm Calm - N/A   Clear
3:03 AM 50.0 °F 46.4 °F 87% 29.97 in 2.0 mi Calm Calm - N/A   Clear
3:09 AM 51.8 °F 48.2 °F 88% 29.97 in 0.8 mi Calm Calm - N/A   Mist
3:20 AM 50.0 °F 46.4 °F 87% 29.98 in 2.5 mi Calm Calm - N/A   Partly Cloudy
3:27 AM 50.0 °F 46.4 °F 87% 29.98 in 7.0 mi Calm Calm - N/A   Partly Cloudy
3:40 AM 48.2 °F 46.4 °F 93% 29.98 in 1.0 mi Calm Calm - N/A   Clear
3:45 AM 48.2 °F 44.6 °F 87% 29.98 in 0.2 mi Calm Calm - N/A Fog Fog
3:53 AM 48.0 °F 45.0 °F 89% 29.97 in 0.5 mi Calm Calm - N/A Fog Fog
3:58 AM 48.2 °F 44.6 °F 87% 29.98 in 2.0 mi Calm Calm - N/A   Partly Cloudy
4:05 AM 48.2 °F 44.6 °F 87% 29.99 in 9.0 mi Calm Calm - N/A   Partly Cloudy
4:25 AM 46.4 °F 42.8 °F 87% 29.98 in 1.8 mi Calm Calm - N/A   Partly Cloudy
4:32 AM 48.2 °F 44.6 °F 87% 29.99 in 3.0 mi Calm Calm - N/A   Partly Cloudy
4:36 AM 46.4 °F 44.6 °F 93% 29.99 in 1.2 mi Calm Calm - N/A   Scattered Clouds
4:41 AM 46.4 °F 42.8 °F 87% 29.99 in 0.2 mi Calm Calm - N/A Fog Fog
4:50 AM 46.4 °F 42.8 °F 87% 29.99 in 0.2 mi Calm Calm - N/A Fog Fog
4:53 AM 46.9 °F 43.0 °F 86% 29.98 in 0.2 mi Calm Calm - N/A Fog Fog
5:11 AM 48.2 °F 44.6 °F 87% 29.99 in 1.0 mi Calm Calm - N/A   Mist
5:13 AM 48.2 °F 44.6 °F 87% 29.99 in 2.0 mi Calm Calm - N/A   Partly Cloudy
5:21 AM 48.2 °F 44.6 °F 87% 29.98 in 3.0 mi East 3.5 mph - N/A   Clear
5:27 AM 48.2 °F 44.6 °F 87% 29.98 in 1.8 mi East 3.5 mph - N/A   Clear
5:53 AM 46.9 °F 44.1 °F 90% 29.98 in 1.5 mi Calm Calm - N/A   Clear
6:08 AM 46.4 °F 42.8 °F 87% 30.00 in 0.5 mi Calm Calm - N/A Fog Fog
6:16 AM 44.6 °F 42.8 °F 93% 30.00 in 0.2 mi Calm Calm - N/A Fog Fog
6:34 AM 44.6 °F 42.8 °F 93% 30.01 in 1.2 mi Calm Calm - N/A   Mostly Cloudy
6:36 AM 46.4 °F 42.8 °F 87% 30.01 in 3.0 mi Calm Calm - N/A   Mostly Cloudy
6:42 AM 46.4 °F 44.6 °F 93% 30.01 in 0.8 mi Calm Calm - N/A   Mist
6:51 AM 48.2 °F 44.6 °F 87% 30.01 in 0.2 mi Calm Calm - N/A Fog Fog
6:53 AM 48.9 °F 46.0 °F 90% 30.01 in 0.2 mi Calm Calm - N/A Fog Fog
6:59 AM 50.0 °F 46.4 °F 87% 30.02 in 1.0 mi Calm Calm - N/A   Mist
7:06 AM 51.8 °F 48.2 °F 88% 30.02 in 1.8 mi Calm Calm - N/A   Partly Cloudy
7:10 AM 51.8 °F 48.2 °F 88% 30.02 in 3.0 mi Calm Calm - N/A   Partly Cloudy
7:24 AM 51.8 °F 48.2 °F 88% 30.02 in 3.0 mi Calm Calm - N/A   Mostly Cloudy
7:28 AM 51.8 °F 50.0 °F 94% 30.02 in 1.5 mi Calm Calm - N/A   Mostly Cloudy
7:38 AM 53.6 °F 51.8 °F 94% 30.02 in 0.8 mi Calm Calm - N/A   Mist
7:44 AM 55.4 °F 51.8 °F 88% 30.03 in 2.0 mi East 3.5 mph - N/A   Mostly Cloudy
7:47 AM 55.4 °F 51.8 °F 88% 30.03 in 4.0 mi Calm Calm - N/A   Scattered Clouds
7:53 AM 57.0 °F 53.1 °F 87% 30.02 in 5.0 mi Calm Calm - N/A   Scattered Clouds
8:53 AM 64.9 °F 55.0 °F 70% 30.02 in 10.0 mi SSE 6.9 mph - N/A   Clear
9:53 AM 71.1 °F 52.0 °F 51% 30.02 in 10.0 mi SSE 6.9 mph - N/A   Clear
10:53 AM 73.9 °F 51.1 °F 45% 30.02 in 10.0 mi SE 5.8 mph - N/A   Clear
11:53 AM 78.1 °F 48.9 °F 36% 30.00 in 10.0 mi SE 5.8 mph - N/A   Clear
12:53 PM 80.1 °F 46.9 °F 31% 29.99 in 10.0 mi SE 4.6 mph - N/A   Clear
1:53 PM 82.0 °F 46.0 °F 28% 29.97 in 10.0 mi SE 9.2 mph - N/A   Clear
2:53 PM 82.9 °F 48.0 °F 29% 29.95 in 10.0 mi Calm Calm - N/A   Clear
3:53 PM 84.0 °F 46.0 °F 26% 29.93 in 10.0 mi SSE 5.8 mph - N/A   Clear
4:53 PM 84.0 °F 44.1 °F 25% 29.93 in 10.0 mi SSW 6.9 mph - N/A   Clear
5:53 PM 82.9 °F 48.0 °F 29% 29.91 in 10.0 mi SSE 8.1 mph - N/A   Clear
6:53 PM 78.1 °F 48.9 °F 36% 29.91 in 10.0 mi SSE 4.6 mph - N/A   Clear
7:53 PM 69.1 °F 52.0 °F 54% 29.91 in 10.0 mi SSE 3.5 mph - N/A   Clear
8:53 PM 64.0 °F 53.1 °F 67% 29.92 in 10.0 mi SSE 4.6 mph - N/A   Clear
9:53 PM 63.0 °F 53.1 °F 70% 29.92 in 10.0 mi SE 4.6 mph - N/A   Clear
10:53 PM 60.1 °F 52.0 °F 75% 29.92 in 10.0 mi Calm Calm - N/A   Clear
11:53 PM 59.0 °F 53.1 °F 81% 29.92 in 10.0 mi Calm Calm - N/A   Clear